Погода в Мценске

Погода в Мценске : погода сейчас, прогноз погоды и архив. Всё, что Вы хотите узнать о погоде в Мценске!

Поиск расширенной информации на нашем сайте:

Другие новости

Новости СМИ2

Главная страница сайта

Новости сайта

03.07.2017

Напоминаем, что на нашем специализированном сайте Метеоцентр.Азия вы можете получить высокодетализированные автоматические прогнозы погоды по пунктам России, СНГ и мира в авиационном формате (включающие направление и скорость ветра, видимость, явления погоды, количество и форму облачности, нижнюю и верхнюю границу облачности).


Погода в Мценске - сегодня

Время (UTC), дата Ветер
(°,м/с) 
Видим.   Явления Облачность Т
(°С)
Тd
(°С)
f(%) Тe
(°С)
Pmin
(гПа)
dP
(гПа)
Po
(мм)
O2
(г/м3)
Тmin Tmax R s Состояние
почвы
09 20.01.18 130 (ЮВ) 5000 м  слаб. снег  10/10 300 м 
[Frnb|Ns]
-5.8 -6.9 92 -5  1009.4  -0.3  738  304           
12 20.01.18 170 (Ю) 10 км  слаб. ливневой снег  10/10 600 м кучево-дожд. 
[Cb cap]
-2.6 -4.5 87 -2  1008.9  -0.2  738  301           
15 20.01.18 190 (Ю) 4000 м  в посл. час ливневой снег  10/10 600 м кучево-дожд. 
[Cb calv]
-1.8 -3.3 89 -3  1009.3  0.4  738  300         
18 20.01.18 200 (Ю) 10 км  слаб. снег{ливн. осадки}  10/10 600 м 
[Sc]
-2 -4.1 85 -3  1009.9  0.6  739  300    -1.8     
21 20.01.18 180 (Ю) 10 км  {снег}  10/10 600 м 
[Sc]
-2.3 -4.8 83 -2  1010.2  0.3  739  301           
00 21.01.18 170 (Ю) 10 км  {снег}  10/10 600 м 
[Sc]
-2.6 -5.2 82 -4  1010.2  739  301           
03 21.01.18 тихо ()   10 км    9/9 600 м 
[Sc]
-4.2 -5.8 89 -4  1010  -0.4  738  303  -4.2    0.0     
06 21.01.18 160 (Ю) 15000 м    8/8 600 м 
[Sc]
-3.8 -6 85 -3  1009.8  -0.1  738  302  -4.9    0.0  16  равномерный
сухой снег
100% 
09 21.01.18 тихо ()   21000 м    10/10 600 м кучево-дожд. 
[Cb calv]
-3.5 -6.7 78 -4  1009.2  -0.6  738  302           
12 21.01.18 340 (С) 30000 м    9/3 600 м средняя, верхняя 
[Sc|Ac trans|Cs]
-2.6 -8.5 64 -2  1009  -0.1  738  301           
15 21.01.18 270 (З) 10 км    9/9 600 м 
[Sc]
-3.8 -6.7 80 -5  1009.9  0.8  738  302           
18 21.01.18 270 (З) 4000 м  слаб. ливневой снег  10/10 600 м кучево-дожд. 
[Cb cap]
-3.2 -4.9 88 -4  1010.3  0.4  739  302    -2.3  0.2     
21 21.01.18 270 (З) 4000 м  слаб. ливневой снег  10/10 600 м кучево-дожд. 
[Cb cap]
-2.9 -4.2 91 -4  1012.1  1.6  740  302           
00 22.01.18 270 (З) 10 км  {ливн. осадки}  10/10 600 м 
[Sc]
-3.2 -5.3 85 -4  1014.1  741  303           
03 22.01.18 250 (З) 10 км  слаб. снег  10/10 600 м 
[Sc]
-4.5 -7.6 79 -7  1015.8  1.6  743  305  -4.5    0.3     
06 22.01.18 270 (З) 16000 м  слаб. снег  10/10 600 м 
[Sc]
-5.5 -8.1 82 -5  1017  1.1  743  307  -5.5    0.3  16  равномерный
сухой снег
100% 
09 22.01.18 290 (З) 24000 м  {снег}  4/3 600 м кучево-дожд., верхняя 
[Cb calv|Ci fib]
-5.2 -8.9 75 -5  1018.5  1.4  745  307           
12 22.01.18 270 (З) 29000 м  {снег}  4/0 средняя, верхняя 
[Ac trans|Ci fib]
-4.8 -10.1 66 -4  1019.7  1.2  745  307           
15 22.01.18 250 (З) 10 км    3/0 верхняя 
[Ci fib]
-8.6 -11 83 -10  1020.8  0.8  746  311      0.0     
18 22.01.18 320 (СЗ) 4000 м  дымка  4/0 средняя, верхняя 
[Ac trans|Ci fib]
-10.9 -11.5 95 -11  1022.3  1.2  747  315    -4.4  0.0     
21 22.01.18 010 (С) 4000 м  дымка  10/10 600 м 
[Sc]
-9.9 -10.7 94 -12  1023.1  0.8  748  314           
00 23.01.18 040 (СВ) 4000 м  дымка  8/8 600 м 
[Sc]
-10.4 -11 95 -10  1023.9  0.8  748  314           
03 23.01.18 350 (С) 4000 м  дымка  5/5 600 м 
[Sc]
-12 -13.3 90 -12  1024.3  0.2  748  317  -13.3         
06 23.01.18 350 (С) 7000 м  дымка  9/9 600 м 
[Sc]
-12.9 -13.5 95 -15  1025.7  1.3  749  318  -13.8      16  равномерный
сухой снег
100% 
09 23.01.18 010 (С) 12000 м    9/3 600 м средняя 
[Sc|Ac trans]
-12.1 -13.4 90 -14  1026.1  0.5  750  317           
Время (UTC), дата Ветер
(°,м/с) 
Видим.   Явления Облачность Т
(°С)
Тd
(°С)
f(%) Тe
(°С)
Pmin
(гПа)
dP
(гПа)
Po
(мм)
O2
(г/м3)
Тmin Tmax R s Состояние
почвы

Для получения пояснительной информации подведите курсор к названию столбца.

ПОГОДА в Мценске - архив

Всё, что Вы хотите узнать о погоде в Мценске - удобно и подробно!

Выберите нужную дату (начиная с 1 января 2015* года) и нажмите кнопку "Найти".
Будут отображены архивные сводки погоды по пункту Мценск, начиная с указанной даты.


Отображать данные в формате CSV (для использования в таблицах Excel)


Внимание! Наш архив погоды предназначен исключительно для личного некоммерческого использования в познавательных целях. Если Вам необходимы официальные справки о состоянии погоды (для производственных, юридических, коммерческих и т.п. целей), обращайтесь в органы Росгидромета.

*Примечание: данная дата относится к архиву по метеостанциям СССР (Россия, СНГ, Балтия).
Архив по метеостанциям Зарубежной Европы и Азии (кроме Китая) хранится 10 дней, по другим регионам земного шара (Китай, Африка, Америка, Австралия, Океания) - 1 день.

Мценск - район местоположения метеостанции


Название, широта, долгота, высота метеостанции:
Мценск 53.4°ш. 36.5°д. 201 м над ур. моря [Российская Федерация]

Дополнительная информация

В oтличие oт бoльшинства пoгoдных сайтoв мы публикуем пoдрoбную метеoинфoрмацию в детальнoм прoфессиoнальнoм фoрмате.

Характеристики температуры и влажнoсти вoздуха измеряются на высoте 2 м в тени вдали oт зданий и деревьев.
Скoрoсть ветра измеряется на высoте 10 м (на урoвне рoста челoвека скoрoсть ветра ниже в 1.5-2 раза). Если метеoстанция нахoдится в гoрoде или в лесу, тo скoрoсть ветра занижена на 2-4 м/с пo сравнению с oткрытым местoм. Скoрoсть ветра над акватoриями крупных рек и oзёр, а также на вершинах хoлмoв на 2-5 м/с выше, чем в oбычных услoвиях.
Атмoсфернoе давление в разных тoчках местнoсти мoжет значительнo oтличаться oт давления на метеoстанции, в зависимoсти oт услoвий рельефа (при пoдъёме на 10 м давление пoнижается примернo на 1 мм рт.ст.).